[[{"header":{"parameterUnit":"m.s-1","parameterCategory":1,"la1":30.2991,"la2":30.254,"lo1":-89.0895,"lo2":-89.0444,"dy":0.0017,"dx":0.0017,"nx":28,"ny":28,"refTime":"2026-02-25T09:00:00:Z","depth":0,"parameterNumber":2,"parameterNumberName":"U-component_of_WINDS"},"data":[0,0,0,0,0,0,0,0,0,0,0,0,0,0,0,0,0,0,0,0,0,0,0,0,0,0,0,0,0,0,0,0,0,0,0,0,0,0,0,0,0,0,0,0,0,0,0,0,0,0,0,0,0,0,0,0,0,0,0.6434,0.6434,0,0.6426,0.6425,0.6425,0.6414,0.6413,0.6413,0.6413,0.6406,0.6406,0.6406,0,0,0,0,0,0,0,0,0,0,0,0,0,0.6444,0.6444,0.6434,0.6434,0.6434,0.6426,0.6425,0.6425,0.6414,0.6413,0.6413,0.6413,0.6406,0.6406,0.6406,0,0,0,0,0,0,0,0,0,0,0,0,0,0.6438,0.6444,0.6435,0.6427,0.6427,0.6426,0.6425,0.6425,0.6414,0.6413,0.6413,0.6413,0.6406,0.6406,0.6406,0.6412,0,0,0.6406,0.6406,0,0,0,0,0,0,0,0,0.6439,0.6438,0.6429,0.6428,0.6427,0.642,0.6426,0.6421,0.6414,0.6419,0.6413,0.6413,0.6411,0.6411,0.641,0.6411,0.6411,0.6406,0.6406,0.6406,0.6406,0,0,0,0,0,0,0,0.6439,0.6438,0.6431,0.6428,0.6428,0.6426,0.6424,0.6425,0.6417,0.6418,0.6417,0.6416,0.6411,0.641,0.6409,0.6411,0.6406,0.6406,0.6406,0.6406,0.6419,0.6419,0,0,0,0,0,0,0.644,0.6439,0.6431,0.6431,0.6432,0.6426,0.6424,0.6423,0.6417,0.6415,0.6417,0.6416,0.641,0.6409,0.6409,0.6417,0.6406,0.6406,0.6406,0.6419,0.6419,0.642,0,0,0,0,0,0,0.6441,0.644,0.6432,0.6434,0.6433,0.6426,0.6424,0.6423,0.6422,0.6415,0.6414,0.6417,0.641,0.6409,0.6411,0.6416,0.6406,0.6406,0.6418,0.6419,0.6419,0.6431,0,0,0,0,0,0,0.6441,0.644,0.6441,0.6435,0.6433,0.6433,0.6424,0.6423,0.6422,0.6421,0.6415,0.6414,0.6409,0.6412,0.6411,0.6416,0.6406,0.6418,0.6419,0.6419,0.6431,0.6432,0.6434,0,0,0,0,0,0.6441,0.6445,0.6441,0.644,0.6435,0.6433,0.6433,0.6426,0.6422,0.6424,0.642,0.6415,0.6416,0.6412,0.6412,0.6416,0.6418,0.6418,0.6419,0.643,0.6432,0.6434,0,0,0,0,0,0,0.6453,0.6444,0.644,0.6441,0.6438,0.6431,0.6434,0.6429,0.6427,0.6426,0.6419,0.6418,0.6422,0.6419,0.6415,0.6423,0.6416,0.6417,0.6424,0.6426,0.6428,0.6429,0.6406,0,0,0,0,0,0.6455,0.6454,0.6447,0.6449,0.6448,0.6441,0.644,0.6436,0.6432,0.6431,0.6427,0.6425,0.6425,0.6426,0.6425,0.643,0.643,0.6433,0.6435,0.6436,0.6438,0.6442,0.6444,0.6422,0.6422,0.6422,0,0,0.6461,0.6456,0.6456,0.6451,0.6448,0.6449,0.644,0.644,0.6441,0.6431,0.6434,0.6431,0.6428,0.6432,0.6434,0.643,0.6443,0.6437,0.6439,0.6439,0.6443,0.6445,0.6447,0.6423,0.6423,0.6423,0,0,0.6471,0.6467,0.6469,0.6466,0.6462,0.6457,0.6458,0.6452,0.645,0.6452,0.6446,0.6447,0.6446,0.6445,0.6445,0.6456,0.6452,0.6456,0.6465,0.6469,0.6471,0.6472,0.6478,0.648,0.6457,0.6457,0.6457,0,0.6479,0.6478,0.6471,0.6472,0.6471,0.6462,0.6465,0.6463,0.6459,0.6459,0.6455,0.6455,0.6453,0.6457,0.646,0.646,0.6461,0.6457,0.6471,0.6473,0.6474,0.6479,0.6481,0.6458,0.6458,0.6458,0.6458,0,0.6488,0.6488,0.649,0.6487,0.6486,0.6488,0.6482,0.6482,0.6478,0.6475,0.6478,0.6474,0.6474,0.6475,0.647,0.6479,0.6477,0.6472,0.6465,0.6477,0.6482,0.6484,0.6459,0.6459,0.6458,0.6458,0,0,0.6505,0.6498,0.6499,0.6498,0.6493,0.6493,0.6496,0.6495,0.6496,0.6494,0.6497,0.6497,0.6493,0.6492,0.6488,0.6492,0.6503,0.6487,0.6487,0.6491,0.6515,0.6519,0.6522,0.65,0.6501,0.6501,0.6516,0,0.6515,0.6518,0.6512,0.6517,0.6517,0.651,0.6512,0.651,0.6508,0.6509,0.6506,0.6507,0.6501,0.65,0.6504,0.6501,0.6508,0.65,0.6504,0.6504,0.6506,0.6524,0.6528,0.6542,0.6517,0.6518,0.6518,0,0.6527,0.6526,0.653,0.6527,0.6527,0.6529,0.6529,0.6529,0.6528,0.6526,0.6526,0.6521,0.6525,0.6518,0.6523,0.6518,0.6519,0.6519,0.6519,0.652,0.6512,0.6527,0.6547,0.6549,0.652,0.652,0.652,0,0.654,0.654,0.6543,0.6542,0.6538,0.654,0.6538,0.6536,0.6536,0.6537,0.6537,0.6538,0.6538,0.654,0.6536,0.6531,0.6543,0.6535,0.6543,0.6543,0.6546,0.6546,0.6568,0.6545,0.6545,0.6545,0.6545,0,0.6553,0.6556,0.6549,0.6551,0.6555,0.6549,0.6554,0.6552,0.655,0.6553,0.6547,0.655,0.6544,0.6547,0.6544,0.655,0.655,0.655,0.6549,0.6551,0.6551,0.6552,0.6552,0.6546,0.6545,0.6545,0.6545,0,0.6568,0.6563,0.6566,0.6562,0.6561,0.6565,0.6562,0.6565,0.6562,0.6565,0.6566,0.6562,0.6565,0.6561,0.6564,0.6562,0.6571,0.6568,0.6571,0.6571,0.6579,0.6579,0.6603,0.6607,0.6581,0.6581,0.6582,0,0.6577,0.6579,0.6576,0.6577,0.6576,0.6577,0.6578,0.6572,0.6574,0.6573,0.6576,0.6579,0.658,0.6586,0.6584,0.6586,0.6585,0.6593,0.6585,0.6587,0.6587,0.6587,0.6588,0.6595,0.6595,0.6595,0.6596,0,0.6593,0.6591,0.6591,0.6592,0.6593,0.6593,0.6593,0.6594,0.6589,0.6591,0.6594,0.6595,0.6598,0.6601,0.6604,0.6603,0.6599,0.6598,0.66,0.6603,0.6605,0.6605,0.6577,0.6598,0.6597,0.6597,0.6597,0.6597,0.6606,0.6609,0.6607,0.6609,0.6608,0.6608,0.6611,0.6609,0.6611,0.6613,0.661,0.6614,0.6614,0.6617,0.6617,0.6622,0.6618,0.6621,0.6622,0.6623,0.6625,0.6603,0.6622,0.6622,0.6622,0.6622,0.6622,0,0.6623,0.6622,0.6623,0.6623,0.6625,0.6621,0.6621,0.6623,0.6626,0.6627,0.6629,0.6633,0.6637,0.6636,0.6639,0.6643,0.6641,0.6644,0.6644,0.6645,0.6627,0.6625,0.6645,0.6645,0.6645,0.6645,0.6645,0.6645,0.6632,0.6637,0.6635,0.664,0.6639,0.6643,0.6643,0.6644,0.6645,0.665,0.6653,0.6652,0.6652,0.6656,0.666,0.6659,0.6662,0.6665,0.6665,0.6648,0.6646,0.6644,0.6642,0.6666,0.6666,0.6683,0.6683,0.6683]},{"header":{"parameterUnit":"m.s-1","parameterCategory":1,"la1":30.2991,"la2":30.254,"lo1":-89.0895,"lo2":-89.0444,"dy":0.0017,"dx":0.0017,"nx":28,"ny":28,"refTime":"2026-02-25T09:00:00:Z","depth":0,"parameterNumber":3,"parameterNumberName":"V-component_of_WINDS"},"data":[0,0,0,0,0,0,0,0,0,0,0,0,0,0,0,0,0,0,0,0,0,0,0,0,0,0,0,0,0,0,0,0,0,0,0,0,0,0,0,0,0,0,0,0,0,0,0,0,0,0,0,0,0,0,0,0,0,0,6.4189,6.4188,0,6.4135,6.4135,6.4134,6.4103,6.4103,6.4103,6.4103,6.4042,6.4041,6.4039,0,0,0,0,0,0,0,0,0,0,0,0,0,6.426,6.4259,6.4189,6.4188,6.4188,6.4136,6.4135,6.4134,6.4103,6.4103,6.4103,6.4103,6.4043,6.4041,6.4039,0,0,0,0,0,0,0,0,0,0,0,0,0,6.422,6.4259,6.4189,6.4166,6.4164,6.4136,6.4135,6.4134,6.4103,6.4103,6.4103,6.4103,6.4043,6.4041,6.4039,6.4028,0,0,6.4032,6.4031,0,0,0,0,0,0,0,0,6.4222,6.4217,6.417,6.4168,6.4165,6.4126,6.4138,6.4098,6.4103,6.4126,6.4103,6.4103,6.407,6.4065,6.4056,6.4025,6.4023,6.4032,6.403,6.4029,6.4029,0,0,0,0,0,0,0,6.4225,6.4219,6.4168,6.4169,6.4166,6.4157,6.4151,6.413,6.4099,6.4124,6.4122,6.4116,6.4068,6.4058,6.4054,6.4022,6.4032,6.403,6.4028,6.4028,6.3981,6.3981,0,0,0,0,0,0,6.4232,6.4222,6.4169,6.4166,6.4194,6.4156,6.4149,6.4138,6.4099,6.4093,6.4116,6.4115,6.4062,6.4057,6.4052,6.4037,6.403,6.4027,6.4026,6.3981,6.3981,6.3981,0,0,0,0,0,0,6.4234,6.4228,6.4171,6.4193,6.4186,6.4155,6.4143,6.4137,6.4127,6.4094,6.4088,6.4111,6.4061,6.4055,6.4035,6.4035,6.4026,6.4024,6.398,6.3981,6.3981,6.4008,0,0,0,0,0,0,6.4236,6.4229,6.4225,6.4194,6.4185,6.4157,6.4143,6.4137,6.4124,6.4121,6.4088,6.4082,6.4061,6.4038,6.4033,6.4031,6.4022,6.398,6.3981,6.3981,6.4007,6.4009,6.401,0,0,0,0,0,6.4239,6.4233,6.4225,6.4219,6.418,6.4157,6.4151,6.4129,6.4124,6.412,6.4098,6.4083,6.4036,6.4037,6.403,6.4028,6.398,6.398,6.3981,6.4006,6.4008,6.401,0,0,0,0,0,0,6.4263,6.4229,6.4219,6.4204,6.4184,6.4152,6.4145,6.4132,6.4112,6.411,6.4082,6.4075,6.4057,6.404,6.4042,6.4016,6.4006,6.4005,6.4028,6.403,6.4032,6.4036,6.4021,0,0,0,0,0,6.4267,6.4253,6.4223,6.4212,6.4203,6.4176,6.4165,6.415,6.4128,6.4118,6.4096,6.4073,6.4053,6.404,6.402,6.4004,6.3996,6.3999,6.4001,6.4003,6.4002,6.3994,6.3995,6.3982,6.3982,6.3982,0,0,6.4274,6.4253,6.4246,6.4216,6.4199,6.4184,6.4169,6.4153,6.4142,6.4115,6.4096,6.4079,6.4051,6.4034,6.4025,6.4019,6.4004,6.4003,6.4005,6.4003,6.3994,6.3995,6.3996,6.3982,6.3982,6.3982,0,0,6.4279,6.4263,6.4252,6.4236,6.4211,6.4194,6.4192,6.4162,6.415,6.4131,6.4111,6.4096,6.4062,6.4044,6.4031,6.4032,6.4016,6.4026,6.4035,6.4027,6.4028,6.4029,6.403,6.403,6.4025,6.4025,6.4025,0,6.4291,6.4269,6.4248,6.4235,6.4222,6.42,6.4189,6.4174,6.4143,6.4134,6.4129,6.4087,6.4067,6.4046,6.4046,6.4036,6.4032,6.4029,6.403,6.4031,6.4031,6.4031,6.4032,6.4026,6.4026,6.4026,6.4026,0,6.4285,6.427,6.4264,6.4238,6.4225,6.4212,6.4189,6.4178,6.4164,6.4147,6.4128,6.4103,6.4079,6.4072,6.4058,6.4049,6.4046,6.4036,6.4026,6.4034,6.4034,6.4034,6.4028,6.4028,6.4027,6.4027,0,0,6.4302,6.4267,6.4265,6.4253,6.4225,6.4212,6.4199,6.4177,6.4169,6.4148,6.4136,6.4109,6.41,6.4085,6.4068,6.4061,6.4064,6.4051,6.405,6.4055,6.4053,6.4062,6.4062,6.4054,6.4054,6.4054,6.4056,0,6.4304,6.4281,6.4263,6.4246,6.4232,6.4212,6.4201,6.4182,6.4166,6.4151,6.4132,6.4114,6.4103,6.4094,6.4086,6.4065,6.4063,6.4065,6.4042,6.4041,6.4049,6.4062,6.407,6.4073,6.4056,6.4056,6.4056,0,6.4302,6.4286,6.4269,6.4244,6.4237,6.4227,6.4207,6.4193,6.4171,6.416,6.4144,6.4127,6.4111,6.4104,6.4081,6.4083,6.4072,6.4061,6.406,6.4057,6.4049,6.4059,6.4073,6.4074,6.4055,6.4055,6.4055,0,6.4318,6.4291,6.4278,6.4268,6.4238,6.4232,6.4219,6.4197,6.4186,6.4167,6.4159,6.4138,6.4126,6.411,6.4088,6.4084,6.4068,6.4058,6.4057,6.4058,6.4054,6.4055,6.4067,6.4048,6.4048,6.4048,6.4048,0,6.4322,6.4312,6.4285,6.4276,6.4265,6.4243,6.4232,6.4217,6.4198,6.4186,6.4167,6.4155,6.4127,6.4112,6.4094,6.4079,6.4073,6.4063,6.4059,6.4065,6.4066,6.4057,6.4057,6.4048,6.4048,6.4048,6.4048,0,6.4336,6.4318,6.4302,6.4276,6.427,6.4262,6.424,6.423,6.4214,6.4199,6.4194,6.4168,6.415,6.4127,6.41,6.4088,6.4074,6.4067,6.4083,6.408,6.4081,6.4082,6.4088,6.4088,6.4069,6.4069,6.4069,0,6.434,6.4333,6.4307,6.4299,6.4287,6.4273,6.4262,6.4241,6.423,6.4206,6.4199,6.418,6.4163,6.4135,6.4112,6.4092,6.4084,6.4088,6.4081,6.4088,6.4085,6.4086,6.4085,6.409,6.409,6.409,6.409,0,6.4348,6.434,6.4326,6.4309,6.4298,6.4283,6.4267,6.426,6.4236,6.4224,6.4207,6.4194,6.4168,6.4149,6.4127,6.4111,6.4097,6.4093,6.4092,6.4098,6.4108,6.4103,6.4088,6.4093,6.4093,6.4092,6.4092,6.4092,6.4358,6.4351,6.4333,6.4318,6.4304,6.429,6.4281,6.4265,6.4251,6.423,6.4218,6.42,6.4179,6.4148,6.4134,6.4119,6.4114,6.4112,6.4111,6.4111,6.4114,6.4111,6.4115,6.4115,6.4115,6.4115,6.4114,0,6.4365,6.4353,6.434,6.432,6.4309,6.4299,6.4281,6.4271,6.4257,6.424,6.4225,6.4205,6.4187,6.4164,6.4145,6.4137,6.413,6.4133,6.4133,6.413,6.4119,6.4123,6.4139,6.4139,6.4139,6.4139,6.4139,6.4139,6.4368,6.4356,6.4346,6.4328,6.4315,6.43,6.4291,6.4278,6.4264,6.4243,6.4229,6.4216,6.4196,6.4175,6.4158,6.4152,6.4145,6.415,6.4142,6.4133,6.413,6.4128,6.4131,6.4149,6.4149,6.4153,6.4153,6.4153]}]]